Date,TemperatureHighF,TemperatureAvgF,TemperatureLowF,DewpointHighF,DewpointAvgF,DewpointLowF,HumidityHigh,HumidityAvg,HumidityLow,PressureMaxIn,PressureMinIn,WindSpeedMaxMPH,WindSpeedAvgMPH,GustSpeedMaxMPH,PrecipitationSumIn
2013-1-1,31.5,26.3,16.7,30.3,23.3,13.8,96,88,75,30.10,29.96,5,0,5,0.00
2013-1-2,24.4,12.2,2.0,13.6,5.5,-2.2,88,75,47,30.22,30.09,7,0,7,0.00
2013-1-3,31.0,18.5,4.5,23.4,12.3,-0.1,83,77,66,30.24,30.15,20,1,20,0.00
2013-1-4,29.1,25.1,20.2,23.4,17.5,15.2,84,73,59,30.27,30.21,22,2,22,0.01
2013-1-5,36.5,25.8,13.1,28.2,20.9,10.2,92,82,64,30.28,30.05,11,1,11,0.00
2013-1-6,35.3,30.3,24.7,31.0,25.2,18.5,87,81,74,30.28,29.93,25,2,25,0.00
2013-1-7,34.4,21.7,9.9,25.5,17.4,6.8,92,84,69,30.40,30.17,14,1,14,0.02
2013-1-8,42.8,30.3,20.0,32.1,24.8,17.3,91,81,63,30.23,30.13,14,1,14,0.04
2013-1-9,48.5,39.5,30.9,40.0,34.3,28.0,96,82,67,30.42,30.10,22,2,22,0.15
2013-1-10,39.1,34.1,27.0,37.3,31.0,25.5,95,89,72,30.43,29.98,9,0,9,0.11
2013-1-11,58.9,50.3,39.1,53.9,47.2,37.1,99,90,68,30.01,29.74,23,2,23,0.50
2013-1-12,62.6,54.7,48.3,61.2,52.1,44.8,99,91,78,29.89,29.59,20,2,20,1.02
2013-1-13,62.6,41.8,24.4,60.8,40.4,20.0,97,95,83,30.10,29.49,22,2,22,1.23
2013-1-14,26.6,21.5,18.0,20.1,16.5,12.9,86,81,74,30.38,30.07,18,2,18,0.00
2013-1-15,30.9,25.9,20.8,23.9,20.3,16.5,84,79,70,30.32,30.01,11,2,11,0.00
2013-1-16,33.1,29.7,27.0,24.8,22.9,19.9,90,76,60,30.04,29.89,18,1,18,0.00
2013-1-17,39.8,31.7,23.3,29.7,23.5,13.6,83,72,57,30.34,30.00,23,2,23,0.00
2013-1-18,37.8,28.1,18.4,26.0,19.0,12.9,88,69,46,30.43,30.08,23,3,23,0.00
2013-1-19,52.5,42.1,33.8,35.4,28.8,23.6,70,60,45,30.09,29.77,25,6,25,0.00
2013-1-20,44.9,28.3,22.2,35.5,15.5,7.8,73,59,42,30.17,29.80,32,3,32,0.00
2013-1-21,22.4,15.6,7.2,13.5,5.6,-5.2,84,65,54,30.21,30.05,29,2,29,0.00
2013-1-22,16.1,9.2,2.6,0.4,-3.1,-5.3,71,57,43,30.35,30.20,25,1,25,0.00
2013-1-23,20.2,15.7,7.9,11.3,3.4,-1.2,74,58,46,30.30,30.04,13,1,13,0.00
2013-1-24,22.9,17.4,10.5,12.0,6.0,0.8,81,61,41,30.54,30.05,22,1,22,0.00
2013-1-25,25.1,20.9,15.1,17.7,13.4,8.3,87,73,61,30.37,29.97,13,0,13,0.00
2013-1-26,31.3,20.7,14.0,17.8,14.0,10.1,90,76,55,30.38,30.03,11,0,11,0.09
2013-1-27,36.0,26.0,14.4,35.0,21.4,10.2,96,83,66,30.38,30.01,11,0,11,0.34
2013-1-28,49.4,44.7,35.9,49.1,44.0,33.4,100,97,95,30.03,29.88,18,3,18,0.27
2013-1-29,62.3,55.0,47.9,57.1,52.9,47.4,100,93,83,29.91,29.35,25,5,25,0.00
2013-1-30,63.9,47.1,28.7,58.1,44.1,23.0,98,89,79,29.47,29.14,32,5,32,1.21
2013-1-31,29.4,22.6,9.7,23.9,15.9,2.3,87,75,63,30.02,29.44,34,5,34,0.00
2013-2-1,14.8,9.6,4.3,6.6,0.7,-4.4,77,67,59,30.35,29.99,29,3,29,0.00
2013-2-2,27.2,21.9,13.8,23.2,17.3,5.4,89,82,72,30.27,29.91,18,2,18,0.00
2013-2-3,24.8,17.2,11.1,18.9,11.5,5.6,89,78,68,30.05,29.89,18,1,18,0.00
2013-2-4,32.8,25.6,13.6,30.5,21.6,10.5,96,85,66,30.04,29.73,18,1,18,0.06
2013-2-5,34.3,28.5,19.9,30.3,24.3,16.9,91,84,79,29.93,29.76,14,1,14,0.02
2013-2-6,36.8,30.5,26.3,29.2,23.9,19.8,90,77,56,30.19,29.92,14,1,14,0.04
2013-2-7,54.5,38.5,27.9,41.3,31.5,25.1,93,77,47,30.14,29.70,9,0,9,0.14
2013-2-8,43.9,33.3,25.8,42.2,28.9,21.0,96,84,70,30.28,29.69,27,3,27,0.11
2013-2-9,41.6,28.8,20.2,27.2,22.6,18.0,94,79,51,30.35,30.11,5,0,5,0.00
2013-2-10,49.8,40.7,27.8,47.1,33.9,23.4,97,77,57,30.15,29.63,22,2,22,0.03
2013-2-11,49.4,40.6,32.5,48.0,32.3,24.4,97,73,59,29.95,29.60,36,5,36,0.00
2013-2-12,44.3,33.4,26.6,29.0,25.6,21.9,88,74,51,30.06,29.85,14,1,14,0.00
2013-2-13,41.8,31.4,27.0,29.0,25.7,23.8,92,80,55,29.86,29.70,14,1,14,0.00
2013-2-14,49.9,38.2,31.6,36.8,32.1,27.6,94,80,57,29.91,29.70,25,3,25,0.00
2013-2-15,36.8,30.0,20.6,29.9,25.1,16.2,90,82,70,30.09,29.89,22,1,22,0.03
2013-2-16,23.8,21.0,18.3,19.8,13.0,7.9,89,72,56,30.08,30.01,23,2,23,0.00
2013-2-17,30.6,19.7,8.4,15.8,10.1,4.6,85,68,37,30.17,30.06,14,1,14,0.01
2013-2-18,56.0,39.3,22.9,41.3,28.0,13.5,91,64,50,30.11,29.53,29,4,29,0.21
2013-2-19,45.1,27.6,21.6,41.6,21.3,11.4,93,77,63,30.05,29.49,36,6,36,0.13
2013-2-20,26.4,19.4,12.6,14.3,10.3,4.9,77,68,54,30.26,30.04,29,2,29,0.00
2013-2-21,31.0,24.2,17.5,25.3,18.1,11.7,89,77,66,30.28,29.95,13,2,13,0.01
2013-2-22,35.0,32.7,28.1,34.2,30.6,23.8,97,92,83,29.97,29.78,18,1,18,0.19
2013-2-23,38.2,30.8,25.0,29.5,23.1,19.7,87,74,56,29.92,29.84,18,1,18,0.10
2013-2-24,40.2,29.7,21.8,25.9,22.2,18.1,88,74,54,30.08,29.88,18,1,18,0.05
2013-2-25,45.7,33.3,24.2,29.4,25.2,20.8,88,73,48,30.10,29.80,13,1,13,0.01
2013-2-26,42.5,37.6,33.1,41.7,34.3,25.6,97,88,70,29.83,29.28,20,3,20,0.79
2013-2-27,41.1,34.6,30.6,39.0,32.4,28.6,96,92,80,29.61,29.38,29,4,29,0.03
2013-2-28,36.2,33.1,30.4,32.7,30.7,28.4,95,91,83,29.88,29.59,23,2,23,0.14
2013-3-1,33.4,31.4,27.8,31.4,28.0,20.9,96,87,75,29.99,29.85,14,2,14,0.04
2013-3-2,28.7,27.0,25.1,23.0,19.6,16.8,80,73,65,30.02,29.97,18,2,18,0.00
2013-3-3,31.6,26.9,21.3,22.1,19.3,16.3,87,73,60,30.02,29.98,18,1,18,0.01
2013-3-4,41.1,29.2,17.8,29.5,22.3,15.1,94,77,45,30.08,29.92,9,0,9,0.02
2013-3-5,35.0,33.0,27.5,32.7,30.3,26.3,96,90,81,29.93,29.54,11,0,11,0.18
2013-3-6,33.1,29.4,26.3,28.4,26.4,23.8,95,89,80,30.19,29.62,13,0,13,0.05
2013-3-7,38.5,32.1,28.8,30.0,26.7,-56.4,93,82,66,30.31,30.17,9,0,9,0.05
2013-3-8,43.3,32.0,22.7,27.7,24.7,20.5,92,76,48,30.41,30.30,7,0,7,0.14
2013-3-9,51.9,39.3,27.9,40.9,31.7,-49.0,89,75,57,30.31,29.89,9,0,9,0.00
2013-3-10,65.0,54.3,45.5,42.6,37.7,-49.0,68,54,34,29.89,29.65,25,3,25,0.01
2013-3-11,57.5,46.9,33.8,50.8,41.8,29.8,96,83,51,29.75,29.48,38,5,38,0.38
2013-3-12,43.2,35.0,31.5,30.7,27.2,24.3,92,74,50,29.95,29.75,29,3,29,0.01
2013-3-13,32.2,28.1,24.8,28.6,21.2,15.5,90,75,55,30.25,29.93,25,3,25,0.03
2013-3-14,43.2,31.2,20.6,28.7,19.4,13.3,87,64,32,30.28,30.09,18,1,18,0.00
2013-3-15,48.6,38.2,28.7,39.1,33.0,26.9,96,83,62,30.10,29.69,13,1,13,0.01
2013-3-16,48.6,41.3,33.8,43.9,38.6,31.7,97,90,78,29.95,29.51,18,2,18,0.04
2013-3-17,37.9,33.1,29.7,31.6,27.1,23.5,92,79,65,30.08,29.91,13,3,13,0.00
2013-3-18,42.8,36.3,32.2,42.3,34.9,27.4,98,94,79,29.94,29.50,23,2,23,0.68
2013-3-19,41.1,32.5,25.0,34.5,19.4,12.6,92,60,33,30.03,29.72,36,5,36,0.01
2013-3-20,32.4,27.8,22.1,18.3,14.0,6.9,69,56,43,30.02,29.92,23,3,23,0.00
2013-3-21,32.7,24.1,16.4,16.0,12.2,8.7,83,61,42,29.97,29.89,20,2,20,0.00
2013-3-22,43.1,30.2,18.3,23.1,16.9,13.4,87,60,34,30.00,29.91,18,1,18,0.00
2013-3-23,49.4,37.4,27.6,26.4,24.1,19.6,85,61,34,29.99,29.83,13,1,13,0.00
2013-3-24,35.2,31.8,27.9,30.3,27.2,23.4,95,83,69,29.84,29.36,22,5,22,0.00
2013-3-25,34.1,30.3,27.3,31.4,27.9,25.3,93,91,87,29.89,29.38,18,2,18,0.42
2013-3-26,40.2,33.3,29.8,29.7,27.4,21.7,92,80,56,30.16,29.88,20,2,20,0.10
2013-3-27,42.5,34.1,25.7,28.1,23.8,20.3,90,67,46,30.23,30.15,18,1,18,0.00
2013-3-28,48.2,35.6,24.2,29.5,24.8,20.3,90,67,44,30.28,30.20,13,1,13,0.00
2013-3-29,55.4,40.2,27.2,33.7,28.9,24.9,93,68,36,30.24,30.12,11,1,11,0.00
2013-3-30,58.3,44.0,28.5,37.1,31.5,26.5,95,66,35,30.15,29.82,14,1,14,0.00
2013-3-31,60.2,48.9,42.5,44.5,39.2,34.1,90,71,42,29.84,29.65,23,2,23,0.08
2013-4-1,46.1,39.2,32.2,42.5,23.9,14.2,88,56,31,30.06,29.70,29,3,29,0.00
2013-4-2,44.8,33.4,23.8,21.2,17.2,10.3,80,54,27,30.19,30.06,18,1,18,0.00
2013-4-3,49.2,34.5,21.8,25.4,17.9,9.7,85,55,26,30.34,30.18,13,1,13,0.00
2013-4-4,60.2,42.0,30.4,28.3,20.7,13.5,77,47,17,30.26,29.90,11,0,11,0.00
2013-4-5,57.3,40.9,29.4,32.5,26.8,22.0,84,61,28,30.00,29.88,16,2,16,0.00
2013-4-6,66.6,50.8,36.5,39.0,30.6,-54.8,70,49,27,30.07,0.00,22,2,22,0.00
2013-4-7,73.7,63.2,54.4,46.1,40.5,34.0,64,45,26,29.84,29.67,29,4,29,0.01
2013-4-8,71.5,61.1,53.2,55.5,52.2,39.0,95,74,56,29.85,29.72,31,3,31,0.02
2013-4-9,80.7,65.6,50.5,58.7,53.7,47.6,94,69,37,29.89,29.75,32,4,32,0.02
2013-4-10,80.7,69.3,58.9,65.2,60.4,56.0,92,74,56,29.81,29.63,29,4,29,0.02
2013-4-11,65.3,60.1,53.1,62.5,58.3,52.0,98,94,82,29.67,29.40,13,1,13,1.00
2013-4-12,54.4,42.2,37.2,52.0,34.9,28.6,96,76,61,29.83,29.43,25,4,25,0.07
2013-4-13,51.7,43.8,39.5,37.5,33.3,29.8,85,67,48,29.92,29.82,32,3,32,0.07
2013-4-14,72.8,53.4,36.2,50.6,41.3,33.1,92,67,34,29.94,29.73,13,0,13,0.00
2013-4-15,71.5,60.6,51.4,57.3,50.3,43.7,85,70,54,29.85,29.74,18,2,18,0.00
2013-4-16,64.8,57.3,50.2,61.4,53.2,48.5,96,87,76,30.07,29.77,18,2,18,1.27
2013-4-17,74.7,59.3,49.1,66.9,56.0,47.7,96,89,75,30.10,29.80,11,1,11,0.72
2013-4-18,78.6,67.5,60.2,64.5,60.3,57.5,96,79,54,29.82,29.44,36,5,36,0.10
2013-4-19,60.4,41.6,34.0,59.1,36.2,28.7,96,81,64,29.90,29.38,34,4,34,0.64
2013-4-20,47.7,38.3,31.8,33.4,28.5,23.1,94,70,41,30.32,29.86,38,2,38,0.10
2013-4-21,57.8,42.6,29.8,34.1,28.3,23.6,86,59,32,30.45,30.28,11,1,11,0.10
2013-4-22,70.1,51.9,35.0,44.0,34.5,29.0,81,56,25,30.30,30.01,11,0,11,0.00
2013-4-23,67.9,56.8,46.2,57.6,47.9,39.7,92,73,52,30.02,29.67,22,2,22,0.15
2013-4-24,59.8,43.8,35.6,55.6,40.0,32.3,96,87,68,30.13,29.65,22,2,22,0.84
2013-4-25,55.9,43.1,32.4,38.9,32.7,26.4,95,70,36,30.29,30.13,29,3,29,0.01
2013-4-26,63.1,47.4,32.9,44.7,35.5,30.3,92,67,34,30.35,30.23,13,0,13,0.01
2013-4-27,67.6,53.0,40.6,51.7,42.4,33.2,88,69,37,30.24,29.91,11,0,11,0.01
2013-4-28,62.4,56.5,53.5,59.2,54.4,50.6,98,93,78,29.93,29.71,14,1,14,0.49
2013-4-29,67.6,58.2,53.2,55.7,54.1,50.7,98,87,61,29.88,29.77,11,0,11,0.01
2013-4-30,82.0,63.8,48.3,62.1,54.1,47.2,98,74,44,29.92,29.83,11,1,11,0.01
2013-5-1,87.0,69.0,54.5,61.9,55.8,50.6,91,66,32,30.03,29.91,9,0,9,0.01
2013-5-2,77.9,66.7,56.0,59.8,55.6,52.1,89,69,43,30.08,29.94,9,0,9,0.00
2013-5-3,78.8,66.6,57.0,62.5,56.3,45.8,91,71,51,29.95,29.80,7,0,7,0.00
2013-5-4,72.8,62.0,55.6,53.1,47.9,42.5,91,61,35,29.88,29.81,13,0,13,0.01
2013-5-5,59.6,55.5,52.0,53.0,50.0,47.2,92,82,66,29.88,29.82,9,0,9,0.11
2013-5-6,66.3,58.1,52.0,57.9,53.3,48.6,94,84,69,29.86,29.79,7,0,7,0.04
2013-5-7,74.0,62.5,52.5,57.1,54.1,50.6,96,76,50,29.88,29.80,5,0,5,0.00
2013-5-8,79.2,64.7,53.1,58.0,54.5,49.3,97,73,39,29.89,29.82,20,0,20,0.00
2013-5-9,80.3,63.9,54.1,63.2,55.9,47.6,97,79,34,29.89,29.79,22,0,22,0.79
2013-5-10,65.8,61.1,50.5,63.8,59.5,47.6,99,95,87,29.81,29.67,11,0,11,0.66
2013-5-11,61.2,49.7,43.2,53.1,45.6,39.7,96,86,63,29.92,29.76,18,1,18,0.16
2013-5-12,56.0,46.0,36.8,40.1,33.6,25.8,95,66,33,30.02,29.91,20,1,20,0.00
2013-5-13,63.9,49.9,36.2,40.9,32.8,24.6,92,57,24,30.09,30.01,20,1,20,0.00
2013-5-14,85.1,64.5,45.7,59.8,48.5,37.5,80,58,35,30.03,29.67,20,1,20,0.00
2013-5-15,87.4,75.5,62.9,62.3,58.3,54.4,82,57,36,29.74,29.66,31,2,31,0.00
2013-5-16,82.4,71.6,64.7,68.5,61.8,53.7,92,73,39,29.84,29.68,14,0,14,0.04
2013-5-17,84.5,67.3,59.6,66.4,62.6,58.5,97,87,46,29.93,29.83,14,0,14,1.39
2013-5-18,78.5,68.0,62.0,68.2,64.1,61.4,99,88,65,29.95,29.84,5,0,5,0.01
2013-5-19,86.5,71.8,61.2,71.0,65.1,60.3,98,82,51,29.87,29.73,5,0,5,0.01
2013-5-20,86.7,75.2,68.4,72.7,67.6,64.6,97,79,52,29.83,29.71,18,1,18,0.00
2013-5-21,84.0,72.5,62.4,68.2,63.4,59.6,96,75,47,29.80,29.65,29,1,29,0.04
2013-5-22,76.7,67.9,61.3,65.6,62.5,57.6,96,84,57,29.68,29.58,14,0,14,0.59
2013-5-23,64.8,58.9,50.1,59.8,55.5,48.0,98,89,72,30.02,29.66,22,1,22,0.06
2013-5-24,67.3,54.3,45.7,48.4,43.6,34.4,94,71,30,30.25,30.01,14,0,14,0.00
2013-5-25,64.5,53.9,43.9,49.3,44.1,38.4,91,71,42,30.29,30.12,5,0,5,0.00
2013-5-26,71.3,59.7,49.8,55.5,48.6,43.3,88,68,42,30.20,30.06,9,0,9,0.00
2013-5-27,80.9,63.7,53.1,67.4,58.7,50.3,97,85,56,30.09,29.78,11,0,11,0.89
2013-5-28,82.6,72.1,63.7,69.0,64.0,60.2,91,76,58,29.85,29.75,20,1,20,0.00
2013-5-29,86.7,75.1,66.0,66.8,61.8,58.1,82,65,42,29.91,29.81,18,0,18,0.00
2013-5-30,86.5,75.4,66.4,70.5,65.6,61.3,91,73,51,29.96,29.83,18,0,18,0.00
2013-5-31,75.8,71.4,67.1,70.0,66.9,63.9,96,86,77,29.90,29.77,14,0,14,0.38
2013-6-1,77.0,70.1,64.2,68.9,65.8,61.1,97,86,72,29.80,29.65,14,0,14,0.42
2013-6-2,74.4,66.9,59.5,63.4,59.6,53.0,94,78,58,29.85,29.67,18,1,18,0.00
2013-6-3,71.3,57.8,47.1,54.8,48.6,43.5,89,73,43,29.97,29.84,5,0,5,0.00
2013-6-4,78.6,60.2,47.7,53.8,47.3,43.3,91,66,29,30.06,29.95,13,0,13,0.00
2013-6-5,82.6,67.5,54.2,63.2,54.4,48.5,86,65,41,29.98,29.75,7,0,7,0.00
2013-6-6,77.2,65.0,59.5,66.7,58.6,51.3,96,80,65,29.76,29.67,11,0,11,0.10
2013-6-7,77.4,65.2,57.0,61.9,57.3,54.5,94,77,51,29.77,29.69,9,0,9,0.00
2013-6-8,79.0,66.0,56.0,64.5,58.3,53.1,93,77,54,29.91,29.76,9,0,9,0.00
2013-6-9,81.4,69.3,61.3,67.6,62.7,57.3,96,82,48,29.92,29.73,11,0,11,0.16
2013-6-10,77.6,68.3,64.7,66.8,63.8,59.9,98,86,59,29.74,29.66,14,0,14,0.16
2013-6-11,88.4,71.7,61.5,69.1,63.7,57.6,98,79,39,29.84,29.73,14,0,14,0.01
2013-6-12,91.0,78.2,68.1,75.4,70.4,65.0,96,78,54,29.80,29.54,18,0,18,0.00
2013-6-13,79.9,70.4,62.0,72.9,62.2,51.0,97,77,45,29.85,29.48,18,1,18,1.24
2013-6-14,81.8,67.1,55.9,63.0,57.9,52.2,95,74,44,29.95,29.81,5,0,5,0.00
2013-6-15,83.6,69.6,58.1,67.6,60.6,56.0,96,75,44,29.99,29.82,13,0,13,0.00
2013-6-16,79.4,70.6,65.3,69.3,65.5,61.1,96,84,69,29.88,29.78,14,0,14,0.11
2013-6-17,89.5,74.5,65.6,72.6,67.3,61.0,98,81,40,29.85,29.75,5,0,5,0.00
2013-6-18,87.2,73.5,65.3,69.5,63.7,59.8,93,73,45,29.87,29.74,11,0,11,0.00
2013-6-19,84.5,70.0,58.9,63.2,57.9,53.1,90,68,35,29.99,29.85,5,0,5,0.00
2013-6-20,88.8,71.8,60.1,67.0,60.5,56.2,91,70,38,30.07,29.98,11,0,11,0.00
2013-6-21,90.1,74.2,61.5,69.1,62.9,58.3,92,70,38,30.08,29.93,11,0,11,0.00
2013-6-22,86.5,73.6,66.9,76.6,68.0,64.5,95,83,60,30.01,29.92,11,0,11,0.12
2013-6-23,87.4,72.3,64.8,72.9,67.3,63.6,98,86,53,30.00,29.90,9,0,9,0.02
2013-6-24,88.4,74.9,66.4,73.7,68.5,65.5,98,82,53,30.00,29.88,14,0,14,0.00
2013-6-25,89.3,77.5,68.1,75.6,70.5,66.6,96,80,55,29.91,29.74,18,0,18,0.04
2013-6-26,81.2,71.3,66.3,76.8,68.5,65.4,98,91,79,29.80,29.62,4,0,4,0.57
2013-6-27,86.3,74.4,68.1,73.2,69.2,66.8,98,85,58,29.66,29.56,14,0,14,0.33
2013-6-28,84.7,71.3,63.4,69.7,65.5,58.8,97,84,45,29.58,29.46,18,0,18,0.65
2013-6-29,76.5,66.2,61.5,68.7,63.8,60.9,99,92,70,29.55,29.45,4,0,4,0.09
2013-6-30,79.4,68.0,62.9,69.0,64.2,61.1,98,88,66,29.74,29.54,5,0,5,0.04
2013-7-1,73.3,66.7,63.2,67.2,62.3,58.3,92,86,76,29.82,29.71,5,0,5,0.07
2013-7-2,79.8,68.6,61.8,73.0,65.3,60.9,98,90,68,29.89,29.81,11,0,11,1.58
2013-7-3,82.2,70.5,62.3,70.0,65.5,61.4,99,86,58,29.97,29.88,11,0,11,0.01
2013-7-4,75.1,69.3,64.3,71.5,66.9,63.1,97,92,78,30.01,29.95,4,0,4,0.08
2013-7-5,83.4,72.4,65.5,71.2,67.4,64.7,99,86,56,30.01,29.93,7,0,7,0.00
2013-7-6,72.0,69.5,66.6,70.6,68.1,65.6,97,95,90,29.98,29.91,4,0,4,0.30
2013-7-7,83.2,72.1,65.5,71.8,67.6,64.6,99,87,64,29.99,29.89,7,0,7,0.00
2013-7-8,86.7,75.6,68.1,75.8,70.4,66.8,97,85,64,29.99,29.89,11,0,11,0.00
2013-7-9,88.6,78.4,72.1,77.7,73.3,70.5,97,85,63,29.93,29.83,14,0,14,0.02
2013-7-10,84.5,76.6,71.5,77.7,72.2,67.4,95,87,64,29.84,29.69,13,0,13,0.03
2013-7-11,80.7,70.3,62.0,69.6,60.8,56.6,92,73,49,29.91,29.81,4,0,4,0.01
2013-7-12,82.6,68.1,57.5,64.8,59.9,56.1,98,78,46,30.00,29.91,4,0,4,0.00
2013-7-13,87.4,71.5,60.7,70.2,63.9,59.2,96,79,52,30.02,29.94,5,0,5,0.00
2013-7-14,91.6,77.0,65.8,76.7,69.8,63.9,97,80,57,30.08,30.00,5,0,5,0.10
2013-7-15,92.9,78.9,70.4,75.5,71.5,68.9,98,80,46,30.17,30.07,9,0,9,0.01
2013-7-16,94.9,80.5,70.1,78.0,72.8,68.9,96,80,48,30.16,30.12,4,0,4,0.00
2013-7-17,94.5,80.6,71.3,76.8,72.4,69.3,97,79,45,30.20,30.05,2,0,2,0.00
2013-7-18,95.6,80.3,69.6,78.3,72.6,68.4,98,80,47,30.08,29.88,0,0,0,0.00
2013-7-19,91.2,80.1,71.8,76.6,73.2,70.5,98,81,54,29.92,29.73,14,0,14,0.00
2013-7-20,83.6,73.8,68.4,74.8,70.4,67.4,97,90,73,29.79,29.70,13,0,13,0.08
2013-7-21,83.0,73.6,66.0,74.9,69.5,65.4,98,88,70,29.84,29.75,0,0,0,0.08
2013-7-22,81.2,73.1,69.4,75.0,70.5,68.1,97,92,77,29.77,29.63,0,0,0,0.23
2013-7-23,89.5,75.3,65.6,75.0,68.4,59.3,99,82,47,29.74,29.60,20,0,20,0.00
2013-7-24,76.3,64.3,55.7,61.5,56.6,52.8,94,77,52,29.90,29.73,4,0,4,0.00
2013-7-25,81.6,64.9,52.8,62.0,55.9,50.9,97,76,42,29.99,29.90,7,0,7,0.00
2013-7-26,81.8,67.2,55.1,66.0,58.9,53.1,96,77,50,29.98,29.82,11,0,11,0.00
2013-7-27,77.4,67.6,57.6,66.0,60.8,52.3,99,81,50,29.84,29.71,14,0,14,0.81
2013-7-28,70.6,60.6,50.2,57.1,52.4,48.5,96,76,52,29.94,29.80,14,0,14,0.00
2013-7-29,81.4,64.8,52.9,61.3,55.4,51.8,98,75,40,30.07,29.93,13,0,13,0.00
2013-7-30,75.3,65.5,55.9,66.3,61.0,54.5,98,86,64,30.10,29.98,5,0,5,0.00
2013-7-31,74.6,68.8,64.7,69.8,66.2,62.9,97,92,82,29.99,29.81,0,0,0,0.06
2013-8-1,83.2,71.0,62.6,68.6,62.5,55.1,98,78,41,29.88,29.81,14,0,14,0.01
2013-8-2,82.8,67.8,55.7,68.3,61.7,54.6,99,82,52,29.89,29.81,20,0,20,0.00
2013-8-3,84.5,71.9,62.6,70.0,65.8,57.4,98,83,51,29.95,29.81,7,0,7,0.31
2013-8-4,80.5,65.9,55.6,61.5,56.8,53.3,96,75,40,30.05,29.93,0,0,0,0.00
2013-8-5,81.4,66.4,57.0,65.2,59.7,55.2,96,81,48,30.01,29.83,5,0,5,0.00
2013-8-6,81.8,70.0,60.4,71.9,65.4,58.7,96,86,68,29.85,29.77,9,0,9,0.00
2013-8-7,86.3,75.2,68.6,75.4,71.2,66.7,98,88,65,29.80,29.73,11,0,11,0.00
2013-8-8,82.6,75.1,71.3,77.9,72.3,70.1,98,91,77,29.82,29.76,4,0,4,0.08
2013-8-9,84.3,73.7,68.8,71.1,69.1,66.5,98,87,56,29.91,29.77,0,0,0,0.09
2013-8-10,89.0,74.4,66.3,71.4,67.0,63.2,97,80,47,29.98,29.90,2,0,2,0.00
2013-8-11,85.7,73.8,65.2,70.3,66.7,63.7,99,81,50,29.97,29.91,9,0,9,0.01
2013-8-12,83.8,71.9,63.7,70.6,65.9,61.4,98,83,55,29.96,29.76,4,0,4,0.00
2013-8-13,76.8,67.9,56.2,66.9,60.1,47.9,96,78,50,29.97,29.73,9,0,9,0.00
2013-8-14,72.3,59.1,49.5,56.2,50.5,47.0,95,76,48,30.09,29.96,2,0,2,0.00
2013-8-15,74.0,59.2,48.0,58.1,52.3,46.9,98,80,49,30.09,30.00,0,0,0,0.00
2013-8-16,78.5,63.0,53.1,60.6,55.9,51.0,96,80,51,30.07,30.00,9,0,9,0.00
2013-8-17,85.7,67.3,54.2,64.4,58.1,52.1,95,75,41,30.09,30.01,0,0,0,0.00
2013-8-18,86.1,68.8,57.2,65.2,59.7,55.8,99,76,40,30.08,29.98,5,0,5,0.00
2013-8-19,86.7,69.4,57.2,67.7,60.8,55.9,98,77,41,30.03,29.94,2,0,2,0.00
2013-8-20,89.5,71.9,59.5,69.3,63.7,58.1,99,78,43,30.05,29.96,13,0,13,0.00
2013-8-21,90.7,75.3,64.7,72.0,67.0,63.0,97,78,42,30.03,29.91,0,0,0,0.00
2013-8-22,83.2,72.7,66.4,75.1,68.1,65.2,97,86,62,29.97,29.88,0,0,0,0.07
2013-8-23,88.4,72.4,64.3,69.6,65.9,62.0,99,82,48,30.03,29.93,0,0,0,0.01
2013-8-24,88.8,70.3,56.7,65.9,59.8,54.3,94,73,32,30.15,30.02,0,0,0,0.00
2013-8-25,90.5,71.9,58.9,65.6,61.0,53.6,98,73,31,30.21,30.09,0,0,0,0.00
2013-8-26,89.3,73.2,61.0,73.2,66.2,58.6,97,80,54,30.12,29.95,11,0,11,0.00
2013-8-27,90.5,77.8,68.9,76.3,71.3,67.2,98,82,54,29.97,29.82,11,0,11,0.00
2013-8-28,93.8,80.0,72.1,75.5,71.8,67.9,96,78,52,29.84,29.75,14,0,14,0.00
2013-8-29,91.0,76.5,68.1,72.3,69.3,66.2,98,81,47,29.92,29.83,0,0,0,0.00
2013-8-30,93.2,76.0,63.5,73.0,68.0,62.3,99,79,44,29.88,29.69,9,0,9,0.00
2013-8-31,90.3,74.6,69.4,75.8,69.4,66.1,97,85,52,29.72,29.65,5,0,5,0.22
2013-9-1,85.1,73.7,66.4,73.6,69.0,65.5,98,86,62,29.71,29.62,9,0,9,0.00
2013-9-2,85.5,72.7,64.0,70.7,66.3,59.0,99,83,46,29.80,29.63,9,0,9,0.00
2013-9-3,78.5,63.9,53.1,59.6,55.3,50.6,96,76,46,29.95,29.79,0,0,0,0.00
2013-9-4,85.1,65.4,51.1,61.4,55.5,49.0,100,75,32,30.05,29.94,9,0,9,0.00
2013-9-5,87.6,68.5,55.3,66.1,59.5,53.1,98,76,40,30.08,30.00,2,0,2,0.00
2013-9-6,85.7,66.8,54.1,61.2,53.0,48.8,86,65,29,30.13,29.98,0,0,0,0.00
2013-9-7,88.8,70.5,56.5,67.1,60.7,53.1,92,74,42,29.99,29.82,7,0,7,0.00
2013-9-8,91.6,74.7,63.4,70.5,65.9,62.0,98,77,40,29.87,29.79,0,0,0,0.00
2013-9-9,93.4,76.7,64.3,71.0,67.5,63.1,98,76,44,29.89,29.79,13,0,13,0.00
2013-9-10,97.8,79.4,71.8,73.6,69.8,63.4,96,76,33,29.98,29.85,14,0,14,0.00
2013-9-11,96.6,78.8,69.1,72.2,67.2,60.5,97,72,31,30.01,29.87,13,0,13,0.00
2013-9-12,83.8,72.5,65.2,70.6,65.1,50.7,97,80,47,29.89,29.73,16,0,16,0.28
2013-9-13,68.6,58.6,48.2,55.4,47.6,41.5,91,69,41,30.00,29.83,18,0,18,0.00
2013-9-14,75.4,55.3,41.5,48.4,42.2,34.8,96,67,25,30.10,29.98,5,0,5,0.00
2013-9-15,79.8,60.4,45.5,57.9,49.0,43.1,97,70,31,30.04,29.89,13,0,13,0.01
2013-9-16,71.3,60.8,52.2,56.0,54.1,49.7,92,80,54,30.17,29.96,5,0,5,0.00
2013-9-17,78.8,60.8,48.5,54.4,50.9,46.3,95,73,38,30.23,30.05,11,0,11,0.00
2013-9-18,85.9,67.7,55.9,64.1,57.9,51.2,92,73,43,30.06,29.90,11,0,11,0.00
2013-9-19,81.2,69.9,64.8,70.9,66.9,63.6,99,91,67,29.95,29.82,9,0,9,2.55
2013-9-20,81.8,71.0,66.4,70.7,68.0,65.5,98,91,66,29.85,29.66,18,0,18,0.22
2013-9-21,73.7,61.9,53.6,66.0,54.2,45.5,98,79,39,29.79,29.62,13,0,13,0.50
2013-9-22,72.5,55.6,46.1,51.1,47.2,43.8,99,77,38,29.92,29.78,11,0,11,0.00
2013-9-23,74.6,55.7,44.3,51.7,46.9,42.7,97,75,39,30.03,29.91,9,0,9,0.00
2013-9-24,78.6,58.6,45.7,58.2,50.2,43.9,96,76,41,29.99,29.80,9,0,9,0.00
2013-9-25,81.6,63.1,53.9,58.0,52.3,49.0,87,71,37,29.83,29.75,2,0,2,0.00
2013-9-26,83.2,61.7,48.3,61.3,53.2,47.2,99,77,39,29.97,29.82,0,0,0,0.00
2013-9-27,85.1,63.4,50.1,55.6,49.8,42.3,92,67,23,30.07,29.96,0,0,0,0.00
2013-9-28,84.1,64.3,51.0,60.2,53.7,47.7,96,72,35,30.07,29.91,11,0,11,0.00
2013-9-29,62.6,60.7,57.3,61.8,59.2,55.3,99,95,86,29.92,29.87,5,0,5,0.78
2013-9-30,72.5,64.1,60.4,64.9,61.7,59.4,100,93,72,29.90,29.82,11,0,11,0.02
2013-10-1,78.1,64.8,57.8,65.2,60.9,57.5,100,89,55,29.96,29.87,13,0,13,0.00
2013-10-2,80.7,67.4,59.6,69.7,64.1,58.6,100,90,66,29.99,29.91,7,0,7,0.00
2013-10-3,83.4,69.9,64.3,70.6,66.0,63.1,100,89,54,29.95,29.83,11,0,11,0.13
2013-10-4,83.4,70.6,64.7,70.7,67.0,64.1,100,90,60,29.94,29.86,9,0,9,0.06
2013-10-5,73.9,69.2,64.8,73.6,68.2,64.2,100,97,89,29.92,29.78,11,0,11,1.72
2013-10-6,66.1,59.8,47.6,66.1,59.2,43.8,100,98,82,29.79,29.62,18,0,18,2.01
2013-10-7,61.5,50.1,43.6,49.2,45.0,41.9,97,84,58,30.07,29.73,20,0,20,0.02
2013-10-8,73.0,53.6,42.9,53.1,46.6,42.4,100,80,40,30.18,30.06,7,0,7,0.00
2013-10-9,77.6,56.5,44.8,54.7,48.0,43.5,97,77,35,30.15,30.04,9,0,9,0.00
2013-10-10,78.5,57.6,44.9,51.8,47.0,41.1,99,73,28,30.10,29.97,9,0,9,0.00
2013-10-11,82.6,59.5,46.1,56.3,50.0,44.7,97,75,35,30.02,29.90,5,0,5,0.00
2013-10-12,82.0,61.7,50.1,58.3,53.4,49.0,99,78,34,30.00,29.91,9,0,9,0.00
2013-10-13,74.4,61.7,52.2,60.8,50.4,39.8,94,70,31,30.23,29.99,5,0,5,0.00
2013-10-14,73.7,55.2,42.9,50.7,44.9,40.1,96,72,33,30.26,30.09,9,0,9,0.00
2013-10-15,67.8,58.1,49.5,62.2,55.5,45.2,98,91,81,30.10,29.81,7,0,7,0.10
2013-10-16,62.9,57.1,44.6,62.3,51.8,42.3,100,84,55,29.88,29.75,13,0,13,0.19
2013-10-17,51.3,45.3,39.8,49.3,43.4,39.0,99,93,77,29.88,29.79,14,0,14,0.14
2013-10-18,66.6,50.4,40.9,50.2,44.2,40.4,100,82,47,29.92,29.81,18,0,18,0.01
2013-10-19,52.0,44.1,39.9,43.0,40.1,35.0,98,86,55,29.89,29.76,20,0,20,0.38
2013-10-20,65.3,48.4,38.3,46.7,40.5,36.1,93,76,44,29.92,29.83,18,0,18,0.00
2013-10-21,63.4,50.6,42.5,48.9,43.1,32.9,91,76,55,29.89,29.78,22,0,22,0.01
2013-10-22,54.4,40.6,30.6,38.9,30.9,24.8,93,71,35,29.96,29.75,14,0,14,0.03
2013-10-23,47.0,38.6,33.8,38.4,33.7,25.6,98,84,47,29.96,29.68,20,0,20,0.27
2013-10-24,39.9,37.3,33.5,37.4,32.6,26.9,92,83,74,30.20,29.95,13,0,13,0.04
2013-10-25,50.7,35.9,26.9,29.8,26.0,22.0,93,71,34,30.36,30.18,20,0,20,0.00
2013-10-26,52.0,40.9,31.9,40.9,31.8,26.4,83,70,56,30.20,29.82,18,1,18,0.00
2013-10-27,59.2,41.3,29.5,37.5,32.7,28.5,99,75,38,30.02,29.95,13,0,13,0.00
2013-10-28,63.7,43.1,30.3,41.5,33.3,29.0,99,74,30,30.22,29.99,9,0,9,0.00
2013-10-29,57.2,46.1,36.5,44.9,40.0,34.4,96,80,60,30.28,30.11,5,0,5,0.00
2013-10-30,61.6,55.4,48.3,61.6,54.8,44.3,100,98,86,30.12,29.85,4,0,4,0.09
2013-10-31,63.2,60.0,56.2,63.1,59.3,55.3,100,98,92,29.86,29.17,34,1,34,1.40
2013-11-1,58.1,51.4,45.1,56.2,45.8,39.8,99,82,61,29.66,29.27,29,2,29,0.01
2013-11-2,54.7,46.5,41.1,43.2,40.2,36.5,98,80,52,30.02,29.65,13,1,13,0.00
2013-11-3,56.5,42.9,34.1,42.8,37.4,33.3,99,83,45,30.26,30.00,9,0,9,0.00
2013-11-4,54.2,45.4,36.5,43.0,39.2,34.4,95,80,59,30.30,30.18,9,0,9,0.00
2013-11-5,57.5,50.4,46.0,49.4,44.8,41.5,98,82,66,30.28,30.07,9,0,9,0.02
2013-11-6,55.9,48.0,41.1,55.1,46.3,40.1,99,94,71,30.08,29.85,23,2,23,0.43
2013-11-7,41.2,9.0,0.0,40.7,-52.8,-79.1,98,21,93,30.20,29.98,13,0,13,0.00
2013-11-8,0.0,0.0,0.0,-79.1,-79.1,-79.1,0,0,100,30.24,30.08,0,0,0,0.00
2013-11-9,0.0,0.0,0.0,-79.1,-79.1,-79.1,0,0,100,30.09,29.87,0,0,0,0.00
2013-11-10,0.0,0.0,0.0,-79.1,-79.1,-79.1,0,0,100,30.22,29.97,0,0,0,0.00
2013-11-11,0.0,0.0,0.0,-79.1,-79.1,-79.1,0,0,100,30.19,29.96,0,0,0,0.00
2013-11-12,0.0,0.0,0.0,-79.1,-79.1,-79.1,0,0,100,30.49,30.16,0,0,0,0.00
2013-11-13,0.0,0.0,0.0,-79.1,-79.1,-79.1,0,0,100,30.48,30.23,0,0,0,0.00
2013-11-14,0.0,0.0,0.0,-79.1,-79.1,-79.1,0,0,100,30.24,29.99,0,0,0,0.00
2013-11-15,0.0,0.0,0.0,-79.1,-79.1,-79.1,0,0,100,30.00,29.93,0,0,0,0.00
2013-11-16,0.0,0.0,0.0,-79.1,-79.1,-79.1,0,0,100,29.97,29.68,0,0,0,0.00
2013-11-17,64.5,32.8,0.0,61.3,-5.1,-79.1,93,45,60,29.71,29.27,34,3,34,0.81
2013-11-18,50.1,42.9,33.4,40.5,32.4,24.6,86,67,43,30.11,29.64,31,3,31,0.00
2013-11-19,44.1,32.7,25.7,30.2,26.6,23.4,93,79,55,30.27,30.10,11,0,11,0.00
2013-11-20,51.1,36.7,26.4,35.2,29.1,23.1,88,75,48,30.25,30.11,4,0,4,0.00
2013-11-21,55.6,46.4,40.8,48.0,42.5,33.1,96,87,64,30.20,30.07,13,0,13,0.35
2013-11-22,50.5,44.2,33.4,50.0,41.9,30.0,98,92,80,30.32,30.05,20,2,20,0.09
2013-11-23,34.4,26.9,20.0,30.2,20.3,10.7,93,77,55,30.52,30.30,23,2,23,0.00
2013-11-24,28.2,20.2,14.1,14.6,12.1,8.2,85,71,48,30.64,30.44,14,0,14,0.00
2013-11-25,32.4,26.7,17.3,22.7,16.1,12.2,83,65,49,30.45,30.09,14,1,14,0.00
2013-11-26,33.4,31.6,29.4,27.3,25.4,21.3,87,78,67,30.11,29.88,16,0,16,0.00
2013-11-27,31.3,24.0,18.3,24.9,17.2,12.3,83,75,62,30.23,29.89,22,2,22,0.00
2013-11-28,34.3,24.4,16.1,16.5,14.1,11.7,85,66,44,30.37,30.17,22,2,22,0.00
2013-11-29,41.8,25.8,15.7,23.8,18.2,12.5,93,75,41,30.56,30.35,5,0,5,0.00
2013-11-30,51.0,34.2,22.1,28.9,24.5,18.6,90,70,41,30.44,30.06,18,1,18,0.00
2013-12-1,53.5,39.1,31.8,36.8,29.3,23.8,90,69,52,30.08,29.87,22,0,22,0.00
2013-12-2,48.5,39.4,32.9,37.8,34.4,30.0,92,83,64,29.88,29.69,5,0,5,0.02
2013-12-3,52.3,41.7,33.5,49.9,39.5,-50.2,98,93,82,29.77,29.68,4,0,4,0.00
2013-12-4,59.5,51.3,41.5,56.4,50.1,39.9,98,96,85,29.73,29.56,11,0,11,0.00
2013-12-5,59.9,40.0,25.0,56.0,35.9,22.5,91,85,73,30.10,29.58,20,2,20,0.03
2013-12-6,27.0,24.9,23.3,23.7,22.0,20.1,92,89,83,30.35,30.08,18,0,18,0.03
2013-12-7,25.8,15.8,6.7,20.1,10.2,3.2,89,79,60,30.57,30.33,7,0,7,0.11
2013-12-8,29.1,22.9,10.7,28.1,19.1,4.1,96,85,78,30.49,29.92,5,1,5,0.11
2013-12-9,29.4,25.7,20.0,28.4,20.7,12.0,96,82,66,30.17,29.90,22,2,22,0.00
2013-12-10,27.3,19.0,11.2,15.1,11.3,6.7,87,72,49,30.27,30.08,25,2,25,0.00
2013-12-11,30.9,17.2,6.9,20.5,11.8,2.8,89,79,64,30.47,30.23,20,1,20,0.00
2013-12-12,18.0,10.1,-1.8,4.8,0.9,-6.2,83,67,48,30.51,30.28,18,1,18,0.00
2013-12-13,34.9,23.1,11.9,29.5,14.8,0.4,94,71,57,30.29,30.05,18,1,18,0.01
2013-12-14,35.9,31.8,25.7,34.9,30.6,23.7,96,95,92,30.07,29.63,18,0,18,0.01
2013-12-15,26.6,22.8,20.0,24.4,17.5,11.0,93,80,68,30.04,29.80,31,2,31,0.00
2013-12-16,27.3,23.1,18.8,25.5,19.9,-62.4,93,88,83,30.05,29.92,11,0,11,0.00
2013-12-17,28.1,24.9,22.5,26.3,22.1,19.9,96,89,76,30.08,29.93,14,1,14,0.00
2013-12-18,32.8,24.5,15.2,21.5,16.8,11.7,92,73,56,30.19,29.94,14,1,14,0.00
2013-12-19,43.5,38.6,31.6,39.0,30.3,19.9,86,72,60,29.96,29.81,14,2,14,0.01
2013-12-20,57.8,49.4,42.1,57.2,46.8,37.7,98,91,81,29.82,29.64,18,2,18,1.64
2013-12-21,57.8,46.9,40.9,57.2,46.4,40.1,99,98,97,29.71,29.37,13,1,13,3.84
2013-12-22,58.9,43.4,32.8,58.6,41.4,29.6,100,93,84,29.97,29.28,20,4,20,0.26
2013-12-23,33.2,26.9,19.1,29.9,21.2,13.1,89,79,72,30.33,29.95,23,2,23,0.00
2013-12-24,20.6,13.5,7.0,12.5,7.1,1.3,85,75,64,30.51,30.32,14,1,14,0.00
2013-12-25,28.4,23.8,15.6,23.6,16.6,11.2,85,74,64,30.44,30.11,18,2,18,0.00
2013-12-26,36.9,30.1,24.5,26.9,22.4,18.7,88,73,53,30.28,30.08,23,2,23,0.00
2013-12-27,44.6,34.1,25.0,31.4,27.0,21.4,87,75,58,30.31,30.16,14,2,14,0.00
2013-12-28,51.1,38.1,31.0,35.6,30.9,27.8,88,76,54,30.18,29.89,14,1,14,0.00
2013-12-29,45.7,35.7,27.3,37.0,31.0,23.1,95,83,62,29.98,29.69,25,2,25,0.00
2013-12-30,27.8,21.7,18.1,23.8,15.9,11.5,90,78,65,30.20,29.97,14,1,14,0.00
2013-12-31,30.4,24.3,19.9,20.9,15.3,11.3,77,68,52,30.29,30.10,25,2,25,0.00
2014-1-1,40.5,29.0,19.9,29.1,23.4,16.8,92,80,61,30.21,29.92,11,1,11,0.00
2014-1-2,28.8,18.2,4.8,25.7,14.0,-2.2,92,83,70,30.26,29.81,14,2,14,0.00